Torna al catalogo

FENGYUN 1C DEB

AttivoPO
NORAD 30676·DEBRIS·🇨🇳 China

Lanciato May 10, 1999 da Taiyuan Satellite Launch Center

Loading…

Prossimi Passaggi (prossime 24 ore)

TLE

AggiornatoSource: Space-Track

Epoca: Sep 14, 2026, 05:03 UTC

1 30676U 99025AQJ 26257.21087484  .00000606  00000-0  30248-3 0  9995
2 30676  98.2916  52.6074 0468122  20.4946 341.4319 13.74983126977081

Traccia FENGYUN 1C DEB in tempo reale con AllMySat

Download on the App Store